星链-30902 (STARLINK-30902 )

导读

STARLINK-30902是美国于2023年11月22日发射的星链卫星,星链是SpaceX打造的低轨卫星互联网星座,该卫星主要用于为全球提供高速互联网服务,尤其覆盖偏远、网络基础设施匮乏地区,其入轨进一步扩充了星链星座的服务覆盖范围与网络容量,推动全球卫星互联网组网进程。

基本信息
目录编号:
58421
目录名称:
STARLINK-30902
国际标识:
2023-180V
轨道中心:
EARTH
卫星名称:
星链-30902
卫星全名:
星链-30902 (STARLINK-30902 )
卫星状态:
在轨 (已飞行1024 天)
发射日期:
2023-11-22 UTC
国别 :
美国 (US)
星等 :
--
该卫星已列入 空间交会检测服务 Space Conjunction Data Service (SCDS) ,当前飞行风险评估等级: 无高风险
轨道信息
数据来源 国际轨道数据
星历时间: 2026-09-11T04:17:22+0800
17小时前
查看轨道信息
半长轴: 6861.205km
偏心率: 0.000095
轨道倾角: 43.002°
近地点辐角 271.191°
升交点赤经 86.843°
平近点角 88.883°
近地点: 482.416km
远地点: 483.72km
周期: 94.267分钟
每日圈数: 15.275737
详细信息
固有亮度:
5
最大亮度:
0.3
卫星平台:
Starlink v2.0 mini
覆盖范围:
全球
运营商:
太空探索技术公司
运营商所在国:
美国
制造商(研发单位):
太空探索技术公司
制造商所在国:
美国
使用方式:
暂无
卫星简介
星链(Starlink)计划是由太空探索技术公司(SpaceX)提出的一个巨型低轨卫星互联网星座项目,计划在2019年至2024年间在太空搭建由约1.2万颗卫星组成的“星链”网络,其中1584颗将部署在地球上空550千米处的近地轨道,并从2020年开始工作。该卫星仍在工作。
2D轨道图
3D轨道图
轨道高度分析图
轨道倾角分析图
轨道综合分析图
查看轨道综合分析图
交会数据列表
事件ID 空间交会对象 最接近时刻(TCA) 交会距离 交会风险概率(CRP) 交会风险指数(CRI) 操作
CDM_260913-045405-842105-983821
2026-09-13T
04:54:10+0000
0.848 km
远距离
3.528026E-5 中风险 0.66
CDM_260912-201405-842106-219921
2026-09-12T
20:14:35+0000
0.896 km
远距离
2.999637E-5 中风险 0.65
CDM_260913-213305-842106-402121
2026-09-13T
21:33:43+0000
0.954 km
远距离
1.446929E-5 中风险 0.58
CDM_260913-053805-842106-346221
2026-09-13T
05:38:46+0000
1.132 km
极远距离
1.349934E-5 中风险 0.58
CDM_260912-161805-842106-346221
2026-09-12T
16:18:29+0000
1.220 km
极远距离
1.038929E-5 中风险 0.55
CDM_260913-093605-842106-434421
2026-09-13T
09:36:31+0000
1.327 km
极远距离
8.962863E-6 低风险 0.54
CDM_260913-181405-842105-983821
2026-09-13T
18:14:27+0000
1.413 km
极远距离
6.142579E-6 低风险 0.51
CDM_260912-035405-842106-359221
2026-09-12T
03:54:28+0000
1.353 km
极远距离
5.885375E-6 低风险 0.5
CDM_260912-021105-842106-219921
2026-09-12T
02:11:49+0000
1.621 km
极远距离
4.035478E-6 低风险 0.47
CDM_260913-143005-842106-402121
2026-09-13T
14:30:02+0000
1.425 km
极远距离
3.717803E-6 低风险 0.46
与全量物体交会距离演化趋势
与全量物体交会风险概率演化趋势